Showing default

BPA 3/SL-24, 39448

Orbit data source: Space-Track

BPA 3/SL-24, 39448 is a payload satellite owned by Kosmotras (UA) in SSO that was launched on Thu, 21 Nov 2013 UTC launched from the Orenburg, Russia (OREN). Payload-class satellites include a variety of spacecraft equipped with specific instruments for various scientific and technological missions. These include communications satellites like Starlink; space stations such as the ISS; scientific satellites like the Hubble; Earth observation satellites from companies like Planet Labs, Umbra, and HawkEye 360; GPS; miniature CubeSats for education and research; and military/defense satellites.

Loading next visibility...
Identifier
39448, 2013-066AJ
Orbit
SSO
Country
Flag of UAUA / UKR
Related business
Manufacturer
Yuzhnoe
Mission
Non-operational spacecraft
Bus & Motor
15A18-BR, Unknown motor
Mass
~1,000 kg wet, ~1,000 kg dry
Launch date (UTC)
2013-11-21 (12 years ago)
Launch vehicle
Unknown
Launch site
Orenburg, Russia (OREN)
Object type
Payload
Rocket body
Debris
Shape & HBR
Cyl, 1.5 m
Radar Cross Section
10.603 m², Large (>1 m²)

Expand to show TLE details & history
Last TLE update: 11 hours ago

TLE from 11 hours ago
0 BPA 3/SL-24
1 39448U 13066AJ  26037.57542318  .00000055  00000-0  38632-4 0  9993
2 39448  97.6678 233.4912 0677623   6.8869 354.1027 13.43216361598357
Epoch: 2026-02-06T13:48Z
TLE epoch observation values (Epoch: 2026-02-06T13:48:36.562Z)
Latitude
-0.00004°
Longitude
-110.37246°
Altitude
596.607 km
Speed
7.812 km/s
True Right ascension
15h 33m 57s
True Declination
0° 00' 00"
Sunlit
Object was in daylight at epoch
Visualization orbit readout
Latitude
Unknown
Longitude
Unknown
Altitude
Unknown
Speed
Unknown
Apparent Right ascension
Unknown
Apparent Declination
Unknown
Sunlit
N/A
Visualization observer readout
Local Sidereal Time
02:40:24
Azimuth
Unknown
Elevation
Unknown
Doppler factor
Unknown
Orbital elements
Apogee altitude
1,600.884 km
Perigee altitude
588.155 km
Semi-major axis
7,472.657 km
Eccentricity
0.06776
Inclination
97.6678°
RAAN
233.4912°
Arg. of periapsis
6.8869°
True anomaly
353.23181°
Mean anomaly
354.1027°
Eccentric anomaly
353.67497°
Mean motion
3.35993 °/min
Orbital period
107.14 mins
BSTAR
0.000038632
Loading maneuver chart data...
Computing Atmospheric mass density...
Loading historical data...
Loading historical data...
Loading historical data...
Loading historical data...
Loading historical data...
Loading historical data...
Loading historical data...

Documentation

Showing up to 5 results
|